OpenBCM V1.13 (Linux)

Packet Radio Mailbox

DB0FHN

[JN59NK Nuernberg]

 Login: GUEST





  
CX2SA  > KEPS     19.11.04 09:46l 151 Lines 3943 Bytes #999 (0) @ AMSAT
BID : ORB04323.O
Read: GUEST
Subj: Orbital Elements  04323.OSCAR
Path: DB0FHN<DB0MRW<OK0PPL<DB0RES<ON0AR<7M3TJZ<EA5AKC<CX2SA
Sent: 041119/0736Z @:CX2SA.LAV.URY.SA #:40534 [Minas] FBB7.00e $:ORB04323.O
From: CX2SA@CX2SA.LAV.URY.SA
To  : KEPS@AMSAT


HR AMSAT ORBITAL ELEMENTS FOR OSCAR SATELLITES
FROM WA5QGD FORT WORTH,TX November 18, 2004
SEND SUBSCRIBE/UNSUBSCRIBE TO majordomo@amsat.org ONLY
BID: ORB04323.O
TO ALL RADIO AMATEURS BT

Satellite: AO-07
Catalog number: 07530
Epoch time:      04323.14376292
Element set:     348
Inclination:      101.6621 deg
RA of node:         7.3561 deg
Eccentricity:    0.0012042
Arg of perigee:   284.0309 deg
Mean anomaly:      75.9424 deg
Mean motion:   12.53569405 rev/day
Decay rate:       -2.9e-07 rev/day^2
Epoch rev:           37320
Checksum:              266

Satellite: AO-10
Catalog number: 14129
Epoch time:      04323.54316258
Element set:     121
Inclination:       26.8116 deg
RA of node:        60.9628 deg
Eccentricity:    0.6031976
Arg of perigee:   141.7374 deg
Mean anomaly:     282.2047 deg
Mean motion:    2.05866459 rev/day
Decay rate:      .00000000 rev/day^2
Epoch rev:           16120
Checksum:              265

Satellite: UO-11
Catalog number: 14781
Epoch time:      04323.15277756
Element set:     638
Inclination:       98.1900 deg
RA of node:       310.6539 deg
Eccentricity:    0.0008419
Arg of perigee:   322.9215 deg
Mean anomaly:      37.1413 deg
Mean motion:   14.79073109 rev/day
Decay rate:       6.70e-06 rev/day^2
Epoch rev:           11060
Checksum:              283

Satellite: RS-10/11
Catalog number: 18129
Epoch time:      04323.16100124
Element set:     540
Inclination:       82.9285 deg
RA of node:        34.2318 deg
Eccentricity:    0.0010110
Arg of perigee:   252.3109 deg
Mean anomaly:     107.6953 deg
Mean motion:   13.72748383 rev/day
Decay rate:        3.8e-07 rev/day^2
Epoch rev:           87212
Checksum:              259

Satellite: FO-20
Catalog number: 20480
Epoch time:      04322.64854016
Element set:     743
Inclination:       99.0225 deg
RA of node:       171.0831 deg
Eccentricity:    0.0540502
Arg of perigee:   359.2166 deg
Mean anomaly:       0.8021 deg
Mean motion:   12.83343245 rev/day
Decay rate:       -4.6e-07 rev/day^2
Epoch rev:           69236
Checksum:              265

Satellite: RS-12/13
Catalog number: 21089
Epoch time:      04322.83820922
Element set:     765
Inclination:       82.9225 deg
RA of node:        67.7374 deg
Eccentricity:    0.0028009
Arg of perigee:   310.6984 deg
Mean anomaly:      49.1739 deg
Mean motion:   13.74443295 rev/day
Decay rate:        2.8e-07 rev/day^2
Epoch rev:           69146
Checksum:              324

Satellite: RS-15
Catalog number: 23439
Epoch time:      04322.87485444
Element set:    0835
Inclination:      064.8142 deg
RA of node:       089.2893 deg
Eccentricity:    0.0157680
Arg of perigee:   353.7204 deg
Mean anomaly:     006.1742 deg
Mean motion:   11.27550372 rev/day
Decay rate:       -3.9e-07 rev/day^2
Epoch rev:           40756
Checksum:              312

Satellite: FO-29
Catalog number: 24278
Epoch time:      04323.73558141
Element set:     828
Inclination:       98.5776 deg
RA of node:        35.4074 deg
Eccentricity:    0.0351250
Arg of perigee:     1.6075 deg
Mean anomaly:     358.6105 deg
Mean motion:   13.52905618 rev/day
Decay rate:        3.0e-08 rev/day^2
Epoch rev:           40773
Checksum:              302

Satellite: SO-33
Catalog number: 25509
Epoch time:      04322.91565874
Element set:     239
Inclination:       31.4257 deg
RA of node:       146.7129 deg
Eccentricity:    0.0355552
Arg of perigee:   119.6937 deg
Mean anomaly:     243.9581 deg
Mean motion:   14.27911939 rev/day
Decay rate:       3.36e-06 rev/day^2
Epoch rev:           31660
Checksum:              326

Satellite: AO-40
Catalog number: 26609
Epoch time:      04323.12435274
Element set:     458
Inclination:        9.3405 deg
RA of node:       334.1383 deg
Eccentricity:    0.7960267
Arg of perigee:   339.5917 deg
Mean anomaly:       1.3193 deg
Mean motion:    1.25585916 rev/day
Decay rate:       -6.8e-07 rev/day^2
Epoch rev:            1860
Checksum:              304



Read previous mail | Read next mail


 11.09.2026 19:58:39lGo back Go up